User: anonymous   Login
Location: Ceske Budejovice
(48.9830°N, 14.4670°E)
Time: 02:35:40
(UTC+02:00)
Language:

EO-79 - Orbit

View from above orbital plane
View from above orbital plane
View from above satellite
View from above satellite

Ground track
Ground track

The orbit data is extracted from the following two-line orbital elements,

1 40025U 14033R   19202.83115073  .00000115  00000-0  18248-4 0  9998
2 40025  97.9050 122.4619 0011435 316.1460  43.8848 14.88955440276258
Epoch (UTC): 21 July 2019 19:56:51
Eccentricity: 0.0011435
inclination: 97.9050°
perigee height: 593 km
apogee height: 609 km
right ascension of ascending node: 122.4619°
argument of perigee: 316.1460°
revolutions per day: 14.88955440
mean anomaly at epoch: 43.8848°
orbit number at epoch: 27625

The dashed part of the orbit path shows where the satellite is in the earth's shadow,  

DLR